Location: Caser�o Gudillos
(40.7144°N, 4.1626°W)
Time: 01:43:21
(UTC+00:00)

Daily predictions for brighter satellites

Satellite Brightness Start Highest point End
(mag) Time Altitude Azimuth Time Altitude Azimuth Time Altitude Azimuth
USA 267 3.9 03:30:39 10° NE 03:35:57 46° N 03:35:57 46° N
Cosmos 2344 3.3 03:46:42 86° W 03:46:48 87° NW 03:54:34 10° NE
Cosmos 2251 Rocket 4.1 03:53:53 55° E 03:53:53 55° E 03:58:37 10° NNE
CENTAUR R/B 3.9 03:45:50 10° NNW 03:53:44 51° NE 04:02:19 10° ESE
ISS -0.5 04:00:40 13° NE 04:00:40 13° NE 04:01:22 10° NE
H-2A R/B 4.5 03:52:49 42° SW 03:59:45 57° S 04:06:56 10° ESE
Cosmos 2360 Rocket 3.6 04:04:23 25° SSE 04:04:23 25° SSE 04:06:41 10° SSE
ALOS 3.7 04:00:49 10° NNE 04:05:04 34° E 04:07:02 24° SE
PAYLOAD A 4.2 04:00:05 10° NNE 04:05:04 75° NE 04:05:04 75° NE
USA 234 3.1 04:03:00 10° SE 04:09:32 89° SW 04:11:34 49° NW
CZ-4C R/B 2.7 04:10:13 43° SE 04:10:49 45° ESE 04:16:04 10° NE
Cosmos 883 Rocket 4.4 04:11:11 53° S 04:12:44 82° E 04:18:53 10° N
PSLV R/B 4.0 04:13:24 10° NNE 04:17:22 61° ENE 04:17:22 61° ENE
NOSS 3-4 (A) 4.0 04:16:30 33° S 04:18:44 50° ESE 04:24:36 10° NE
NOSS 3-4 (C) 4.0 04:16:34 32° S 04:18:50 49° ESE 04:24:42 10° NE
Lacrosse 5 2.2 04:19:24 48° N 04:20:33 61° NE 04:25:33 10° ESE
NOSS 3-2 (C) 4.4 04:17:15 10° NNW 04:24:51 66° NE 04:33:24 10° SE
GPS 2-04 Rocket1 4.4 04:26:32 25° SE 04:26:32 25° SE 04:28:29 10° ESE
Cosmos 2333 Rocket 2.6 04:24:10 10° NNW 04:29:55 65° ENE 04:35:38 10° SE
ATLAS 2AS CENTAUR R/B 3.8 04:26:17 10° S 04:33:46 49° ESE 04:41:15 10° NE
Cosmos 1484 Rocket 3.4 04:31:02 10° NNE 04:34:39 51° E 04:35:27 42° SE
Delta 2 Rocket 4.2 04:35:05 44° S 04:35:05 44° S 04:39:33 10° ESE
Cosmos 1805 Rocket 3.5 04:30:31 10° N 04:35:00 83° E 04:39:27 10° S
Landsat 5 3.6 04:31:26 10° SSE 04:35:13 65° ENE 04:39:05 10° N
Cosmos 2315 Rocket 3.8 04:34:41 28° SSW 04:38:07 77° W 04:44:21 10° N
CZ-2C R/B 2.7 04:37:37 10° N 04:41:25 44° NW 04:41:25 44° NW
Cosmos 2219 Rocket 2.4 04:38:53 10° NNW 04:44:34 73° ENE 04:50:13 10° SSE
Cosmos 1606 4.2 04:47:57 25° NNW 04:47:57 25° NNW 04:49:52 10° N
Cosmos 1140 Rocket 4.1 04:42:21 10° S 04:47:24 55° ESE 04:52:28 10° NNE
CBERS 1 LM4 rocket 4.4 04:45:06 10° NNE 04:49:53 77° ESE 04:54:25 11° S
Sich 1 2.9 04:47:13 10° N 04:51:39 86° W 04:56:01 10° S
METEOR-M 4.1 04:50:35 10° NNE 04:55:57 85° ESE 05:01:17 10° SSW
Cosmos 1666 Rocket 3.9 04:54:26 10° N 04:58:47 68° E 05:03:10 10° SSE
SeaSat 1 3.8 04:55:49 10° SE 05:00:23 40° ENE 05:04:59 10° NNW
BREEZE M DEB (TANK) 3.8 04:59:34 19° NNW 05:01:04 28° NNE 05:06:16 10° E
COSMOS 2428 2.7 04:55:29 10° NNW 05:01:14 83° ENE 05:06:58 10° SSE
ATLAS 5 CENTAUR R/B 1.2 05:00:50 48° SW 05:01:51 75° NW 05:06:09 10° NNE
BREEZE-M DEB (TANK) 4.4 05:00:37 24° NW 05:01:52 27° NNW 05:04:29 10° NE
USA 238 DEB 3.9 04:57:48 10° NW 05:05:01 62° WSW 05:12:29 10° SSE
USA 238 3.9 04:57:54 10° NW 05:05:07 63° WSW 05:12:36 10° SSE
BREEZE-M DEB (TANK) 3.3 05:08:11 31° SSW 05:08:11 31° SSW 05:11:35 10° SE
ATLAS 3B R/B 4.4 05:02:18 10° NNW 05:08:29 32° NE 05:14:52 10° ESE
CZ-4B R/B 3.9 05:06:50 10° NNE 05:10:29 68° ESE 05:14:05 10° S
ADEOS 3.7 05:06:00 10° NNE 05:11:15 78° ESE 05:16:27 10° S
Cosmos 1602 4.0 05:08:35 10° N 05:12:30 68° E 05:16:22 10° SSE
H-2A R/B 1.9 05:12:35 10° S 05:16:48 68° WSW 05:20:57 10° NNW
FENGYUN 3A 3.9 05:11:51 10° N 05:17:02 46° WNW 05:21:40 13° SW
Cosmos 1151 Rocket 2.9 05:13:32 10° S 05:17:51 78° W 05:22:10 10° N
Cosmos 909 Rocket 4.3 05:14:58 22° WSW 05:19:00 48° NW 05:25:04 10° NNE
Cosmos 2219 4.3 05:14:06 10° S 05:19:28 46° ESE 05:24:49 10° NE
Meteor 1-25 Rocket 4.1 05:14:37 10° NNW 05:20:09 71° W 05:25:40 10° S
Cosmos 2322 4.0 05:16:14 10° NW 05:21:35 43° WSW 05:26:53 10° S
SWAS 4.5 05:19:38 10° NNW 05:23:53 56° WSW 05:28:04 10° S
NOSS 0 Rocket 4.1 05:18:54 10° NNW 05:25:06 75° ENE 05:31:17 10° SSE
Cosmos 2184 Rocket 4.0 05:20:21 10° N 05:26:43 86° W 05:33:06 10° S
SKYMED 2 3.7 05:24:05 10° SSE 05:28:24 76° ENE 05:32:45 10° N
CZ-2C R/B 4.0 05:27:21 10° S 05:29:02 12° SSE 05:30:46 10° SE
Cosmos 1633 Rocket 3.0 05:25:31 10° NNW 05:29:53 66° W 05:34:12 10° S
Cosmos 1242 Rocket 3.7 05:29:48 10° SSE 05:33:05 43° E 05:36:25 10° NNE
H-2A R/B 3.4 05:31:47 10° NNE 05:35:39 58° E 05:39:26 10° S
Cosmos 1933 4.3 05:33:59 17° WSW 05:36:10 27° WNW 05:39:39 10° NNW
ISS -2.9 05:33:39 12° NW 05:36:40 49° NNE 05:39:56 10° ESE
Milstar 3 Cent rocket 3.6 05:33:45 12° SW 05:36:41 19° S 05:40:01 10° SE
Cosmos 1812 3.4 05:34:30 10° S 05:38:15 59° E 05:42:02 10° NNE
OAO 3 Rocket 4.0 05:37:56 16° WSW 05:41:19 39° S 05:45:48 10° ESE
ALOS 3.4 05:38:34 10° NNW 05:42:17 24° WNW 05:45:33 12° WSW
CSL-04 DEB 4.2 05:40:37 10° S 05:44:34 74° WSW 05:48:30 10° NNW
CENTAUR R/B 3.5 05:36:42 10° NW 05:44:37 47° WSW 05:53:00 10° S
Cosmos 1954 Rocket 4.0 05:40:47 10° SSW 05:46:04 82° WNW 05:51:21 10° NNE
RESURS DK-1 2.7 05:42:26 10° SSW 05:46:31 70° ESE 05:50:38 10° NNE
Meteor 1-31 Rocket 3.2 05:43:33 10° N 05:47:10 39° WNW 05:50:45 10° SW
Meteor 1-14 Rocket 4.2 05:42:12 10° N 05:47:55 83° W 05:53:43 10° S
USA 276 4.3 05:48:25 10° NW 05:50:34 17° N 05:52:44 10° NE
Cosmos 407 Rocket 4.2 05:47:23 10° SW 05:52:02 33° WNW 05:56:41 10° N
Cosmos 2237 Rocket 2.4 05:46:43 10° NNW 05:52:26 80° ENE 05:58:04 10° SSE
USA 234 4.3 05:48:08 10° S 05:53:03 23° WSW 05:57:59 10° WNW
Timation 2 Rocket 4.3 05:50:02 10° SSW 05:56:55 88° ESE 06:03:42 10° NNE
PSLV R/B 4.4 05:54:38 10° SSE 05:58:47 67° ENE 06:02:56 10° N
CZ-4C R/B 3.2 05:55:25 11° W 05:59:32 28° NW 06:04:35 10° NNE
Meteor 2-6 Rocket 4.4 05:54:13 10° S 06:00:10 88° W 06:06:04 10° N
Cosmos 1328 Rocket 4.3 05:56:30 10° SW 06:00:19 31° WNW 06:04:12 10° NNW
Meteor 1-5 Rocket 4.5 05:54:49 10° N 06:00:45 84° E 06:06:44 10° S
Cosmos 1515 Rocket 3.6 05:58:15 10° SSW 06:02:29 54° W 06:06:47 10° N
Lacrosse 5 3.1 05:59:16 10° WNW 06:03:07 22° WSW 06:06:58 10° S
Nadezhda 1 Rocket 4.0 05:57:15 10° SSW 06:03:15 58° W 06:09:25 10° N
GPS 2-04 Rocket1 3.7 06:00:46 10° WSW 06:04:04 31° S 06:07:30 10° SE
Cosmos 1689 Rocket 2.8 06:04:52 10° SSE 06:07:37 55° ENE 06:10:25 10° N
Meteor PRIRODA 3.8 06:04:08 10° N 06:07:47 52° WNW 06:11:24 10° SSW
Cosmos 2227 Rocket 2.2 06:02:28 10° SSW 06:08:08 85° WNW 06:13:51 10° NNE
Cosmos 1437 Rocket 4.1 06:05:21 10° WSW 06:08:29 21° WNW 06:11:36 10° NNW
Cosmos 1666 3.0 06:05:55 10° N 06:09:44 74° E 06:13:34 10° SSE
NOSS 3-4 (A) 4.3 06:04:39 10° WSW 06:09:50 31° NW 06:15:22 10° NNE
NOSS 3-4 (C) 4.3 06:04:44 10° WSW 06:09:56 31° NW 06:15:29 10° NNE
Cosmos 676 Rocket 4.3 06:05:43 10° SW 06:10:51 50° WNW 06:16:00 10° N
Cosmos 2341 Rocket 4.3 06:04:47 10° N 06:11:01 74° E 06:17:13 10° SSE
Lacrosse 5 rocket 4.4 06:08:15 10° SSE 06:11:01 16° ESE 06:13:50 10° E
CZ-4B R/B 2.0 06:08:51 10° SSW 06:11:35 29° W 06:14:19 10° NW
SJ-7 4.3 06:09:07 10° N 06:13:09 79° WNW 06:17:12 10° SSW
CZ-4B R/B 3.4 06:09:11 10° N 06:13:32 48° WNW 06:17:51 10° SSW
Cosmos 2333 Rocket 3.6 06:09:54 10° WNW 06:13:34 18° W 06:17:14 10° SW
Cosmos 1470 Rocket 4.1 06:10:36 10° NNW 06:14:35 36° W 06:18:32 10° SSW
Meteor 1-10 Rocket 4.4 06:09:18 10° S 06:15:13 85° W 06:21:06 10° N
SL-16 R/B 3.5 06:10:03 10° NNW 06:15:30 44° ENE 06:20:55 10° SE
CZ-3 R/B 3.3 06:09:17 10° WSW 06:22:56 34° S 06:27:58 10° SE
